ANA4882 RJCN-RJCC

Flight info

Callsign ANA4882
Flight time 0h 37m
Altitude 30000
Route ENKAT Y134 NODUK Y14 BOKSO V5 CHE
Aircraft B738/M-SDE2E3FGHIRWXY/LB1

Departure

Time 2026-05-06 17:30
Airport Nakashibetsu Airport (RJCN)

Arrival

Time 2026-05-06 18:07
Airport New Chitose Airport (RJCC)
Time Latitude Longitude Altitude Speed Heading
2026-05-06 16:52 43.57343 144.95528 232 ft 0 kts 161°
2026-05-06 17:13 43.57347 144.95525 232 ft 0 kts 163°
2026-05-06 17:13 43.57343 144.95528 232 ft 0 kts 161°
2026-05-06 17:20 43.57345 144.95527 232 ft 3 kts 161°
2026-05-06 17:20 43.57370 144.95516 232 ft 3 kts 161°
2026-05-06 17:21 43.57391 144.95508 232 ft 4 kts 189°
2026-05-06 17:21 43.57412 144.95524 230 ft 4 kts 237°
2026-05-06 17:21 43.57422 144.95555 229 ft 4 kts 250°
2026-05-06 17:21 43.57431 144.95590 228 ft 4 kts 250°
2026-05-06 17:22 43.57436 144.95607 228 ft 1 kts 250°
2026-05-06 17:24 43.57434 144.95583 230 ft 5 kts 277°
2026-05-06 17:24 43.57458 144.95543 228 ft 7 kts 326°
2026-05-06 17:24 43.57506 144.95514 226 ft 8 kts 340°
2026-05-06 17:24 43.57560 144.95487 226 ft 8 kts 341°
2026-05-06 17:25 43.57613 144.95489 227 ft 8 kts 42°
2026-05-06 17:25 43.57637 144.95558 227 ft 9 kts 75°
2026-05-06 17:25 43.57657 144.95646 223 ft 11 kts 72°
2026-05-06 17:25 43.57685 144.95759 221 ft 15 kts 71°
2026-05-06 17:26 43.57727 144.95924 226 ft 21 kts 71°
2026-05-06 17:26 43.57784 144.96142 227 ft 27 kts 71°
2026-05-06 17:26 43.57846 144.96392 230 ft 27 kts 71°
2026-05-06 17:26 43.57904 144.96628 230 ft 25 kts 71°
2026-05-06 17:27 43.57949 144.96844 229 ft 17 kts 85°
2026-05-06 17:27 43.57963 144.96849 228 ft 3 kts 266°
2026-05-06 17:27 43.57938 144.96752 230 ft 21 kts 250°
2026-05-06 17:27 43.57868 144.96479 229 ft 34 kts 251°
2026-05-06 17:28 43.57792 144.96178 228 ft 33 kts 251°
2026-05-06 17:28 43.57720 144.95889 225 ft 31 kts 252°
2026-05-06 17:28 43.57652 144.95613 225 ft 29 kts 251°
2026-05-06 17:28 43.57587 144.95355 230 ft 28 kts 250°
2026-05-06 17:29 43.57525 144.95112 232 ft 26 kts 250°
2026-05-06 17:29 43.57455 144.94917 231 ft 19 kts 223°
2026-05-06 17:29 43.57450 144.94843 231 ft 5 kts 12°
2026-05-06 17:29 43.57467 144.94880 233 ft 10 kts 68°
2026-05-06 17:30 43.57470 144.94895 231 ft 3 kts 72°
2026-05-06 17:30 43.57557 144.95237 232 ft 82 kts 71°
2026-05-06 17:30 43.57836 144.96352 234 ft 161 kts 71°
2026-05-06 17:30 43.58255 144.97904 953 ft 175 kts 69°
2026-05-06 17:31 43.58495 144.98949 1712 ft 170 kts 86°
2026-05-06 17:31 43.58202 145.00524 2603 ft 179 kts 128°
2026-05-06 17:31 43.56688 145.01631 3113 ft 206 kts 183°
2026-05-06 17:31 43.55371 145.00950 3683 ft 208 kts 226°
2026-05-06 17:32 43.54524 144.99263 4115 ft 223 kts 239°
2026-05-06 17:32 43.53899 144.97270 4781 ft 230 kts 251°
2026-05-06 17:32 43.53435 144.95162 5565 ft 234 kts 252°
2026-05-06 17:32 43.53106 144.93666 5922 ft 245 kts 252°
2026-05-06 17:33 43.52414 144.90659 7064 ft 252 kts 252°
2026-05-06 17:33 43.52039 144.89098 7628 ft 255 kts 251°
2026-05-06 17:33 43.51461 144.86769 8517 ft 259 kts 251°
2026-05-06 17:33 43.50865 144.84414 9368 ft 263 kts 251°
2026-05-06 17:34 43.50255 144.82036 10266 ft 264 kts 250°
2026-05-06 17:34 43.49623 144.79592 10755 ft 282 kts 251°
2026-05-06 17:34 43.48940 144.76931 10948 ft 307 kts 251°
2026-05-06 17:34 43.48211 144.74048 11132 ft 330 kts 251°
2026-05-06 17:35 43.47440 144.70987 11497 ft 344 kts 251°
2026-05-06 17:35 43.46651 144.67853 12188 ft 348 kts 251°
2026-05-06 17:35 43.45855 144.64708 12993 ft 348 kts 251°
2026-05-06 17:36 43.44253 144.58343 14315 ft 355 kts 252°
2026-05-06 17:36 43.43540 144.55069 14942 ft 360 kts 254°
2026-05-06 17:36 43.42865 144.51737 15580 ft 363 kts 254°
2026-05-06 17:36 43.42190 144.48385 16240 ft 365 kts 254°
2026-05-06 17:37 43.41514 144.45075 16813 ft 368 kts 253°
2026-05-06 17:37 43.40809 144.41666 17387 ft 372 kts 253°
2026-05-06 17:37 43.40092 144.38238 17951 ft 375 kts 253°
2026-05-06 17:37 43.39364 144.34781 18506 ft 378 kts 253°
2026-05-06 17:38 43.38630 144.31295 19016 ft 382 kts 253°
2026-05-06 17:38 43.37890 144.27786 19598 ft 382 kts 253°
2026-05-06 17:38 43.37146 144.24258 19875 ft 388 kts 253°
2026-05-06 17:38 43.36386 144.20658 19900 ft 396 kts 253°
2026-05-06 17:39 43.35613 144.17003 19902 ft 400 kts 253°
2026-05-06 17:39 43.34838 144.13344 19917 ft 398 kts 253°
2026-05-06 17:39 43.34059 144.09701 19916 ft 397 kts 253°
2026-05-06 17:39 43.33282 144.06061 19910 ft 397 kts 253°
2026-05-06 17:40 43.32508 144.02423 19890 ft 396 kts 253°
2026-05-06 17:40 43.31740 143.98794 19896 ft 396 kts 254°
2026-05-06 17:40 43.31000 143.95147 19900 ft 397 kts 253°
2026-05-06 17:40 43.30218 143.91511 19910 ft 398 kts 253°
2026-05-06 17:41 43.29426 143.87858 19904 ft 400 kts 253°
2026-05-06 17:41 43.28628 143.84204 19913 ft 400 kts 253°
2026-05-06 17:41 43.27831 143.80542 19915 ft 401 kts 253°
2026-05-06 17:41 43.27038 143.76881 19909 ft 401 kts 253°
2026-05-06 17:42 43.26247 143.73214 19906 ft 401 kts 253°
2026-05-06 17:42 43.25456 143.69554 19901 ft 400 kts 253°
2026-05-06 17:42 43.24664 143.65896 19901 ft 400 kts 253°
2026-05-06 17:42 43.23871 143.62244 19905 ft 399 kts 253°
2026-05-06 17:43 43.23078 143.58596 19905 ft 399 kts 253°
2026-05-06 17:43 43.22296 143.55003 19906 ft 399 kts 253°
2026-05-06 17:43 43.21504 143.51364 19906 ft 399 kts 253°
2026-05-06 17:43 43.20708 143.47718 19898 ft 399 kts 253°
2026-05-06 17:44 43.19911 143.44069 19899 ft 399 kts 253°
2026-05-06 17:44 43.19113 143.40426 19893 ft 400 kts 253°
2026-05-06 17:44 43.18314 143.36780 19899 ft 400 kts 253°
2026-05-06 17:44 43.17513 143.33128 19894 ft 400 kts 253°
2026-05-06 17:45 43.16710 143.29480 19894 ft 400 kts 253°
2026-05-06 17:45 43.15905 143.25830 19898 ft 400 kts 253°
2026-05-06 17:45 43.15101 143.22188 19898 ft 400 kts 253°
2026-05-06 17:45 43.14295 143.18539 19901 ft 401 kts 253°
2026-05-06 17:46 43.13486 143.14885 19894 ft 401 kts 253°
2026-05-06 17:46 43.12676 143.11230 19891 ft 401 kts 253°
2026-05-06 17:46 43.11865 143.07576 19894 ft 402 kts 253°
2026-05-06 17:46 43.11048 143.03920 19889 ft 402 kts 252°
2026-05-06 17:47 43.10010 143.00395 19897 ft 402 kts 244°
2026-05-06 17:47 43.08610 142.97079 19903 ft 403 kts 236°
2026-05-06 17:47 43.06921 142.94027 19909 ft 402 kts 234°
2026-05-06 17:47 43.05217 142.90990 19897 ft 403 kts 234°
2026-05-06 17:48 43.03519 142.87946 19899 ft 403 kts 234°
2026-05-06 17:48 43.01821 142.84889 19896 ft 403 kts 234°
2026-05-06 17:48 43.00133 142.81838 19894 ft 401 kts 235°
2026-05-06 17:48 42.98502 142.78816 19889 ft 389 kts 235°
2026-05-06 17:49 42.96902 142.75917 19888 ft 377 kts 234°
2026-05-06 17:49 42.95339 142.73128 19897 ft 362 kts 234°
2026-05-06 17:49 42.93838 142.70460 19893 ft 346 kts 234°
2026-05-06 17:49 42.92416 142.67908 19892 ft 332 kts 235°
2026-05-06 17:50 42.91056 142.65427 19861 ft 319 kts 237°
2026-05-06 17:50 42.89790 142.63038 19895 ft 304 kts 234°
2026-05-06 17:50 42.88522 142.60814 19844 ft 292 kts 234°
2026-05-06 17:50 42.87266 142.58606 18941 ft 300 kts 234°
2026-05-06 17:51 42.85968 142.56294 17787 ft 315 kts 234°
2026-05-06 17:51 42.84621 142.53882 16623 ft 325 kts 234°
2026-05-06 17:51 42.83233 142.51399 15448 ft 333 kts 235°
2026-05-06 17:51 42.81916 142.48783 14296 ft 337 kts 245°
2026-05-06 17:52 42.81292 142.45780 13751 ft 322 kts 259°
2026-05-06 17:52 42.81131 142.42757 13167 ft 316 kts 271°
2026-05-06 17:52 42.81488 142.39830 12705 ft 311 kts 278°
2026-05-06 17:52 42.81959 142.36999 12238 ft 305 kts 279°
2026-05-06 17:53 42.82434 142.34168 11783 ft 309 kts 279°
2026-05-06 17:53 42.82928 142.31262 11310 ft 330 kts 279°
2026-05-06 17:53 42.83451 142.28128 10913 ft 333 kts 279°
2026-05-06 17:53 42.83926 142.25155 10798 ft 320 kts 279°
2026-05-06 17:54 42.84393 142.22240 10642 ft 310 kts 279°
2026-05-06 17:54 42.84840 142.19428 10524 ft 298 kts 278°
2026-05-06 17:54 42.85271 142.16714 10396 ft 288 kts 278°
2026-05-06 17:54 42.85685 142.14102 10276 ft 276 kts 279°
2026-05-06 17:55 42.86083 142.11588 10162 ft 266 kts 278°
2026-05-06 17:55 42.86462 142.09173 10040 ft 255 kts 277°
2026-05-06 17:55 42.86825 142.06867 9977 ft 245 kts 278°
2026-05-06 17:55 42.87178 142.04608 9735 ft 241 kts 278°
2026-05-06 17:56 42.87528 142.02378 9444 ft 239 kts 278°
2026-05-06 17:56 42.87874 142.00169 9195 ft 238 kts 278°
2026-05-06 17:56 42.88221 141.97975 8907 ft 235 kts 279°
2026-05-06 17:56 42.88561 141.95811 8661 ft 232 kts 278°
2026-05-06 17:57 42.88896 141.93660 8378 ft 232 kts 277°
2026-05-06 17:57 42.89229 141.91519 8096 ft 230 kts 278°
2026-05-06 17:57 42.89860 141.89513 7812 ft 238 kts 303°
2026-05-06 17:57 42.91156 141.88067 7603 ft 247 kts 324°
2026-05-06 17:58 42.92840 141.87315 7346 ft 263 kts 341°
2026-05-06 17:58 42.94677 141.86900 7072 ft 272 kts 344°
2026-05-06 17:58 42.96574 141.86521 6779 ft 278 kts 345°
2026-05-06 17:58 42.98488 141.86144 6434 ft 279 kts 344°
2026-05-06 17:59 43.00398 141.85742 6138 ft 277 kts 344°
2026-05-06 17:59 43.02300 141.85332 5844 ft 277 kts 344°
2026-05-06 17:59 43.04187 141.84918 5570 ft 274 kts 343°
2026-05-06 17:59 43.05899 141.83978 5284 ft 258 kts 315°
2026-05-06 18:00 43.06987 141.82150 5040 ft 243 kts 289°
2026-05-06 18:00 43.07378 141.79971 4822 ft 233 kts 268°
2026-05-06 18:00 43.07187 141.77804 4594 ft 230 kts 252°
2026-05-06 18:00 43.06476 141.75862 4374 ft 232 kts 233°
2026-05-06 18:01 43.05456 141.74134 4156 ft 234 kts 232°
2026-05-06 18:01 43.04426 141.72424 3934 ft 230 kts 232°
2026-05-06 18:01 43.03441 141.70785 3867 ft 216 kts 232°
2026-05-06 18:01 43.02520 141.69253 3779 ft 202 kts 232°
2026-05-06 18:02 43.01660 141.67817 3676 ft 189 kts 232°
2026-05-06 18:02 43.00843 141.66453 3353 ft 189 kts 231°
2026-05-06 18:02 42.99761 141.65433 3015 ft 194 kts 199°
2026-05-06 18:02 42.98408 141.65316 2790 ft 197 kts 179°
2026-05-06 18:03 42.97069 141.65557 2573 ft 190 kts 175°
2026-05-06 18:03 42.95786 141.65806 2374 ft 182 kts 176°
2026-05-06 18:03 42.94562 141.66033 2157 ft 174 kts 176°
2026-05-06 18:03 42.93354 141.66248 2064 ft 176 kts 176°
2026-05-06 18:04 42.92161 141.66458 2019 ft 169 kts 175°
2026-05-06 18:04 42.91019 141.66655 1989 ft 162 kts 174°
2026-05-06 18:04 42.89907 141.66851 2016 ft 161 kts 174°
2026-05-06 18:04 42.88786 141.67077 1998 ft 164 kts 171°
2026-05-06 18:05 42.87639 141.67302 1818 ft 167 kts 176°
2026-05-06 18:05 42.86503 141.67462 1609 ft 164 kts 174°
2026-05-06 18:05 42.85366 141.67656 1384 ft 160 kts 173°
2026-05-06 18:05 42.84303 141.67845 1188 ft 152 kts 172°
2026-05-06 18:06 42.83291 141.68026 997 ft 146 kts 171°
2026-05-06 18:06 42.82296 141.68198 804 ft 142 kts 171°
2026-05-06 18:06 42.81320 141.68372 612 ft 142 kts 172°
2026-05-06 18:06 42.80344 141.68545 412 ft 141 kts 172°
2026-05-06 18:07 42.79368 141.68718 238 ft 143 kts 172°
2026-05-06 18:07 42.78396 141.68890 77 ft 134 kts 172°
2026-05-06 18:07 42.77610 141.69028 66 ft 85 kts 173°
2026-05-06 18:07 42.77219 141.69096 68 ft 38 kts 173°
2026-05-06 18:08 42.77064 141.69057 69 ft 21 kts 248°
2026-05-06 18:08 42.77103 141.68901 63 ft 18 kts 333°
2026-05-06 18:08 42.77197 141.68872 68 ft 9 kts 352°
2026-05-06 18:08 42.77256 141.68862 67 ft 8 kts 352°
2026-05-06 18:09 42.77312 141.68852 60 ft 8 kts 352°
2026-05-06 18:09 42.77365 141.68843 61 ft 8 kts 352°
2026-05-06 18:09 42.77416 141.68834 61 ft 7 kts 352°
2026-05-06 18:09 42.77462 141.68826 62 ft 6 kts 352°
2026-05-06 18:10 42.77506 141.68818 60 ft 7 kts 352°
2026-05-06 18:10 42.77551 141.68810 66 ft 7 kts 352°
2026-05-06 18:10 42.77613 141.68799 58 ft 12 kts 353°
2026-05-06 18:10 42.77719 141.68781 60 ft 18 kts 353°
2026-05-06 18:11 42.77845 141.68760 64 ft 18 kts 353°
2026-05-06 18:11 42.77927 141.68746 66 ft 16 kts 353°
2026-05-06 18:11 42.78071 141.68722 66 ft 15 kts 353°
2026-05-06 18:11 42.78173 141.68703 62 ft 14 kts 352°
2026-05-06 18:12 42.78270 141.68685 59 ft 14 kts 352°
2026-05-06 18:12 42.78363 141.68667 60 ft 13 kts 352°
2026-05-06 18:12 42.78453 141.68651 59 ft 13 kts 352°
2026-05-06 18:12 42.78540 141.68637 60 ft 12 kts 353°
2026-05-06 18:13 42.78577 141.68630 64 ft 0 kts 352°
2026-05-06 18:14 42.78592 141.68628 67 ft 7 kts 352°
2026-05-06 18:14 42.78652 141.68609 58 ft 9 kts 331°
2026-05-06 18:14 42.78673 141.68533 67 ft 9 kts 270°
2026-05-06 18:15 42.78681 141.68451 62 ft 9 kts 298°
2026-05-06 18:15 42.78734 141.68418 67 ft 9 kts 353°
2026-05-06 18:15 42.78809 141.68406 60 ft 11 kts 350°
2026-05-06 18:15 42.78883 141.68376 60 ft 11 kts 339°
2026-05-06 18:16 42.78949 141.68329 66 ft 11 kts 329°
2026-05-06 18:16 42.79011 141.68277 60 ft 10 kts 321°
2026-05-06 18:16 42.79049 141.68200 63 ft 8 kts 276°
2026-05-06 18:16 42.79014 141.68145 67 ft 8 kts 217°
2026-05-06 18:17 42.78987 141.68118 62 ft 1 kts 216°
2026-05-06 18:17 42.78982 141.68113 64 ft 0 kts 216°
2026-05-06 18:23 42.78982 141.68114 67 ft 0 kts 216°
2026-05-06 18:24 42.78983 141.68114 67 ft 0 kts 216°